Location: Albany
(35.0000°S, 118.0000°E)
Time: 08:13:57
(UTC-04:00)

Atlas Centaur 2 - Visible Passes

Search period start: 01 October 2014 00:00
Search period end: 11 October 2014 00:00
Orbit: 460 x 1328 km, 30.4° (Epoch: 01 October)

Date Brightness Start Highest point End Pass type
(mag) Time Alt. Az. Time Alt. Az. Time Alt. Az.
01 Oct 4.0 15:26:29 26° N 15:28:14 28° NNE 15:35:01 10° E visible
01 Oct 3.6 17:09:56 10° WNW 17:17:29 55° NNE 17:25:53 10° E visible
02 Oct 3.7 15:25:41 31° N 15:27:05 33° NNE 15:34:12 10° E visible
02 Oct 3.4 17:08:56 10° WNW 17:16:26 59° N 17:24:53 10° E visible
03 Oct 3.4 15:24:50 36° N 15:25:58 38° NNE 15:33:18 10° E visible
03 Oct 3.3 17:07:59 10° WNW 17:15:24 62° N 17:23:52 10° E visible
04 Oct 3.2 15:23:57 41° N 15:24:52 43° NNE 15:32:21 10° E visible
04 Oct 3.3 17:07:04 10° WNW 17:14:22 63° N 17:22:49 10° E visible
05 Oct 3.0 15:23:03 46° N 15:23:49 48° NNE 15:31:20 10° E visible
05 Oct 3.2 17:06:11 10° WNW 17:13:21 63° N 17:21:45 10° ENE visible
06 Oct 2.8 15:22:09 51° N 15:22:47 52° NNE 15:30:18 10° E visible
06 Oct 3.2 17:05:18 10° W 17:12:20 62° N 17:20:38 10° ENE visible
07 Oct 5.1 13:38:27 10° E 13:38:27 10° E 13:38:28 10° E visible
07 Oct 2.7 15:21:15 54° N 15:21:46 56° N 15:29:14 10° E visible
07 Oct 3.2 17:04:27 10° W 17:11:19 59° N 17:19:29 10° ENE visible
08 Oct 5.1 13:37:34 10° E 13:37:34 10° E 13:37:34 10° E visible
08 Oct 2.6 15:20:21 57° N 15:20:47 58° N 15:28:08 10° E visible
08 Oct 3.2 17:03:37 10° W 17:10:17 55° N 17:18:17 10° ENE visible
09 Oct 2.5 15:19:30 58° N 15:19:48 58° N 15:27:02 10° E visible
09 Oct 3.2 17:02:48 10° W 17:09:15 50° NNW 17:17:02 10° ENE visible
10 Oct 2.5 15:18:41 57° N 15:18:50 57° N 15:25:54 10° ENE visible
10 Oct 3.3 17:02:01 10° W 17:08:13 44° NNW 17:15:42 10° NE visible
